Regional Weather Roundup
Issued by NWS

Home | Current Version | Previous Version | Graphics & Text | Print | Product List | Glossary On
Versions: 1 2 3 4 5 6 7 8 9 10 11 12 13 14 15 16 17 18 19 20 21 22 23 24 25 26 27 28 29 30 31 32 33 34 35 36 37 38 39 40 41 42 43 44 45 46 47 48 49 50
210
ASUS43 KLMK 132010
RWRKY
KENTUCKY REGIONAL WEATHER ROUNDUP
NATIONAL WEATHER SERVICE LOUISVILLE KY
300 PM EST SAT FEB 13 2016

NOTE "FAIR" INDICATES FEW OR NO CLOUDS BELOW 12,000 FEET
WITH NO SIGNIFICANT WEATHER AND/OR OBSTRUCTIONS TO VISIBILITY.

KYZ001>023-026-027-061>063-070>075-132100-
WESTERN AND SOUTH CENTRAL KENTUCKY

CITY           SKY/WX    TMP DP  RH WIND       PRES   REMARKS
PADUCAH        PTSUNNY   28   1  31 N9        30.54F WCI  19
HENDERSON      SUNNY     23   3  42 N8        30.57F WCI  14
OWENSBORO      SUNNY     25   1  35 N14       30.56F WCI  13
HOPKINSVILLE   SUNNY     27   2  33 N9        30.52F WCI  18
BOWLING GREEN  SUNNY     29   3  33 VRB7      30.52F WCI  22
GLASGOW        SUNNY     28   1  32 CALM      30.49F
$$

KYZ024-025-028>034-038-045-046-053-132100-
NORTH CENTRAL KENTUCKY

CITY           SKY/WX    TMP DP  RH WIND       PRES   REMARKS
LOUISVILLE/SDF MOSUNNY   27  -2  28 MISG      30.52F
LOUISVILLE/LOU SUNNY     24   0  35 W7        30.53F WCI  16
FORT KNOX      SUNNY     25   1  34 VRB7      30.49F WCI  17
$$

KYZ035>037-039>044-047>052-055>060-089>105-132100-
NORTHEAST KENTUCKY

CITY           SKY/WX    TMP DP  RH WIND       PRES   REMARKS
LEXINGTON      SUNNY     23   3  42 NW12      30.47F WCI  12
COVINGTON      PTSUNNY   18   2  49 NW13      30.50F WCI   5
FRANKFORT      SUNNY     24  -1  33 VRB6      30.49F WCI  17
$$

KYZ054-064>069-076>088-106>120-132100-
SOUTHEAST KENTUCKY

CITY           SKY/WX    TMP DP  RH WIND       PRES   REMARKS
JACKSON        MOSUNNY   23   4  44 NE6       30.42S WCI  16
LONDON         SUNNY     25   3  38 MISG      30.42F
SOMERSET       SUNNY     23   5  46 N8        30.48F WCI  14
MIDDLESBORO    SUNNY     27   6  40 N9G17     30.42S WCI  18
MONTICELLO     CLEAR     26   8  46 VRB6G17   30.48F WCI  19
$$





USA.gov is the U.S. government's official web portal to all federal, state and local government web resources and services.